Погода в Юлдусе

Россия / Курганская область     56°05′56″N   64°21′52″E
темп.,
°C
ветер,
м/с
пор.,
м/с
влажн.,
%
обл.,
%
осадки,
мм/ч
давл.,
гПа
погр.,
м
17 июня, чт
чт1723:00+18з347797 0.1 101249
02:00+17ююз336867 0.0 101129
05:00+17юз51069100 0.0 1011210
08:00+24ююз365699 0.0 1007176
11:00+28зюз71142100 0.0 10061225
14:00+30зюз593983 0.0 10041773
17:00+28сз465154 0.0 1002534
20:00+17юз3109090 5.0 1004406
18 июня, пт
пт1823:00+17сз41095100 5.4 1004399
02:00+16с61194100 1.1 1005555
05:00+13ссв71484100 1.1 1007658
08:00+12с6116999 0.1 10101004
11:00+16с9124046 0.1 10121739
14:00+18с912345 0.0 10132267
17:00+18ссз811385 0.0 10142532
20:00+15ссз510504 0.0 1015305
19 июня, сб
сб1923:00+11сз47541 0.0 1016106
02:00+9сз495899 0.0 1017158
05:00+9сз411681 0.0 1018231
08:00+14сз57544 0.0 1019407
11:00+18сз684063 0.0 10182187
14:00+13зсз5878100 0.3 1017490
17:00+14зсз597799 0.4 1015895
20:00+16зсз3578100 0.0 1014346
20 июня, вс
вс2023:00+13зюз3390100 0.1 101240
02:00+13з3597100 0.4 1011146
05:00+14з3798100 0.6 1010247
08:00+15зсз499780 0.8 1009429
11:00+19сз798092 1.3 1007920
14:00+23сз101349100 0.5 10072389
17:00+22с914484 0.5 10082432
20:00+17ссз9144926 0.0 1011951
21 июня, пн
пн2123:00+14сз6154921 0.0 1011504
02:00+11сз511571 0.0 1012232
05:00+11ссз714534 0.0 1013856
08:00+13ссз9125721 0.0 1015960
11:00+16ссз8105370 0.0 10141173
14:00+19ссз81145100 0.0 10142428
17:00+17ссз61154100 0.0 10141352
20:00+16ссз485882 0.0 1014353